• en France
  • Liste des pays
  • À 7 jours
  • Température de l'eau
  • Carte satellitaire
  • Carte météo
  • Widgets météo
  • user-avatar
    Se connecter

    Météo par heure à Paris

    Ce jour, 18 Janvier, Jeudi

    Heure Température Précipitation Vent Pression Humidité
    00:00 +4°C° 0,2 mm 8 m/s 754 mmHg 80%
    01:00 +5°C° 0,8 mm 9 m/s 753 mmHg 81%
    02:00 +6°C° 0,8 mm 10 m/s 751 mmHg 82%
    03:00 +6°C° 0,8 mm 10 m/s 750 mmHg 83%
    04:00 +7°C° 0,6 mm 10 m/s 750 mmHg 83%
    05:00 +8°C° 0,6 mm 10 m/s 749 mmHg 83%
    06:00 +8°C° 0,6 mm 10 m/s 749 mmHg 83%
    07:00 +9°C° 0,3 mm 10 m/s 749 mmHg 83%
    08:00 +10°C° 0,3 mm 9 m/s 749 mmHg 83%
    09:00 +10°C° 0,3 mm 9 m/s 749 mmHg 82%
    10:00 +10°C° 0,2 mm 9 m/s 749 mmHg 80%
    11:00 +10°C° 0,2 mm 8 m/s 749 mmHg 77%
    12:00 +10°C° 0,2 mm 8 m/s 750 mmHg 75%
    13:00 +10°C° 0,1 mm 8 m/s 750 mmHg 74%
    14:00 +9°C° 0,1 mm 7 m/s 750 mmHg 73%
    15:00 +9°C° 0,1 mm 7 m/s 750 mmHg 72%
    16:00 +8°C° 0,1 mm 7 m/s 750 mmHg 73%
    17:00 +8°C° 0,1 mm 7 m/s 750 mmHg 74%
    18:00 +7°C° 0,1 mm 6 m/s 751 mmHg 75%
    19:00 +7°C° 0,1 mm 6 m/s 751 mmHg 76%
    20:00 +5°C° 0,1 mm 6 m/s 752 mmHg 77%
    21:00 +6°C° 0,1 mm 5 m/s 752 mmHg 77%
    22:00 +6°C° 0,1 mm 5 m/s 753 mmHg 76%
    23:00 +5°C° 0,1 mm 5 m/s 753 mmHg 75%

    Demain, 19 Janvier, Vendredi

    Heure Température Précipitation Vent Pression Humidité
    00:00 +5°C° 0,1 mm 5 m/s 753 mmHg 75%
    01:00 +5°C° 0,1 mm 4 m/s 753 mmHg 76%
    02:00 +4°C° 0,1 mm 4 m/s 754 mmHg 77%
    03:00 +4°C° 0,1 mm 4 m/s 754 mmHg 78%
    04:00 +4°C° 0,1 mm 4 m/s 754 mmHg 80%
    05:00 +3°C° 0,1 mm 4 m/s 754 mmHg 82%
    06:00 +3°C° 0,1 mm 4 m/s 754 mmHg 83%
    07:00 +3°C° 0 mm 4 m/s 754 mmHg 83%
    08:00 +3°C° 0 mm 4 m/s 754 mmHg 83%
    09:00 +4°C° 0 mm 4 m/s 754 mmHg 83%
    10:00 +4°C° 0,3 mm 4 m/s 754 mmHg 82%
    11:00 +4°C° 0,3 mm 4 m/s 754 mmHg 81%
    12:00 +5°C° 0,3 mm 4 m/s 754 mmHg 79%
    13:00 +5°C° 0,2 mm 4 m/s 754 mmHg 76%
    14:00 +5°C° 0,2 mm 5 m/s 754 mmHg 73%
    15:00 +6°C° 0,2 mm 5 m/s 753 mmHg 71%
    16:00 +5°C° 0,1 mm 5 m/s 754 mmHg 72%
    17:00 +3°C° 0,1 mm 5 m/s 754 mmHg 74%
    18:00 +4°C° 0,1 mm 4 m/s 755 mmHg 76%
    19:00 +3°C° 0,2 mm 5 m/s 755 mmHg 77%
    20:00 +3°C° 0,2 mm 5 m/s 755 mmHg 79%
    21:00 +3°C° 0,2 mm 5 m/s 755 mmHg 80%
    22:00 +2°C° 0,1 mm 5 m/s 756 mmHg 81%
    23:00 +2°C° 0,1 mm 5 m/s 756 mmHg 81%

    Après-demain, 20 Janvier, Samedi

    Heure Température Précipitation Vent Pression Humidité
    00:00 +2°C° 0,1 mm 5 m/s 756 mmHg 82%
    01:00 +2°C° 0,1 mm 5 m/s 756 mmHg 84%
    02:00 +2°C° 0,1 mm 5 m/s 755 mmHg 85%
    03:00 +3°C° 0,1 mm 4 m/s 755 mmHg 86%
    04:00 +3°C° 0,2 mm 4 m/s 755 mmHg 87%
    05:00 +3°C° 0,2 mm 4 m/s 754 mmHg 88%
    06:00 +3°C° 0,2 mm 4 m/s 754 mmHg 89%
    07:00 +3°C° 0,2 mm 4 m/s 754 mmHg 90%
    08:00 +4°C° 0,2 mm 4 m/s 754 mmHg 90%
    09:00 +4°C° 0,2 mm 3 m/s 753 mmHg 91%
    10:00 +4°C° 0,1 mm 3 m/s 753 mmHg 90%
    11:00 +5°C° 0,1 mm 3 m/s 753 mmHg 89%
    12:00 +6°C° 0,1 mm 2 m/s 752 mmHg 88%
    13:00 +7°C° 0,1 mm 2 m/s 753 mmHg 87%
    14:00 +7°C° 0,1 mm 2 m/s 753 mmHg 87%
    15:00 +7°C° 0,1 mm 2 m/s 753 mmHg 86%
    16:00 +7°C° 0 mm 2 m/s 753 mmHg 88%
    17:00 +6°C° 0 mm 2 m/s 754 mmHg 90%
    18:00 +7°C° 0 mm 1 m/s 755 mmHg 92%
    19:00 +7°C° 0 mm 1 m/s 755 mmHg 93%
    20:00 +7°C° 0 mm 1 m/s 756 mmHg 93%
    21:00 +5°C° 0 mm 2 m/s 757 mmHg 93%
    22:00 +7°C° 0,2 mm 1 m/s 757 mmHg 94%
    23:00 +7°C° 0,2 mm 1 m/s 757 mmHg 94%

    21 Janvier, Dimanche

    Heure Température Précipitation Vent Pression Humidité
    00:00 +7°C° 0,2 mm 1 m/s 757 mmHg 94%
    01:00 +6°C° 0,4 mm 2 m/s 757 mmHg 95%
    02:00 +6°C° 0,4 mm 2 m/s 757 mmHg 95%
    03:00 +6°C° 0,4 mm 2 m/s 757 mmHg 95%
    04:00 +6°C° 0,3 mm 2 m/s 756 mmHg 95%
    05:00 +6°C° 0,3 mm 2 m/s 756 mmHg 95%
    06:00 +5°C° 0,3 mm 3 m/s 756 mmHg 96%
    07:00 +7°C° 0,9 mm 3 m/s 756 mmHg 95%
    08:00 +7°C° 0,9 mm 3 m/s 756 mmHg 95%
    09:00 +7°C° 0,9 mm 4 m/s 756 mmHg 95%
    10:00 +8°C° 0,3 mm 4 m/s 756 mmHg 93%
    11:00 +9°C° 0,3 mm 5 m/s 756 mmHg 92%
    12:00 +11°C° 0,3 mm 6 m/s 756 mmHg 90%
    13:00 +11°C° 0,1 mm 6 m/s 756 mmHg 89%
    14:00 +11°C° 0,1 mm 7 m/s 756 mmHg 89%
    15:00 +11°C° 0,1 mm 7 m/s 756 mmHg 89%
    16:00 +11°C° 0,3 mm 7 m/s 756 mmHg 88%
    17:00 +11°C° 0,3 mm 7 m/s 757 mmHg 87%
    18:00 +11°C° 0,3 mm 7 m/s 757 mmHg 87%
    19:00 +11°C° 0,3 mm 7 m/s 757 mmHg 87%
    20:00 +11°C° 0,3 mm 7 m/s 758 mmHg 88%
    21:00 +11°C° 0,3 mm 6 m/s 758 mmHg 88%
    22:00 +11°C° 0,3 mm 6 m/s 759 mmHg 89%
    23:00 +11°C° 0,3 mm 6 m/s 759 mmHg 90%

    22 Janvier, Lundi

    Heure Température Précipitation Vent Pression Humidité
    00:00 +12°C° 0,3 mm 5 m/s 759 mmHg 91%
    01:00 +12°C° 0,3 mm 5 m/s 759 mmHg 91%
    02:00 +12°C° 0,3 mm 5 m/s 759 mmHg 92%
    03:00 +12°C° 0,3 mm 5 m/s 759 mmHg 92%
    04:00 +12°C° 0,2 mm 5 m/s 759 mmHg 92%
    05:00 +12°C° 0,2 mm 5 m/s 759 mmHg 92%
    06:00 +12°C° 0,2 mm 5 m/s 759 mmHg 92%
    07:00 +12°C° 0 mm 5 m/s 760 mmHg 91%
    08:00 +13°C° 0 mm 5 m/s 760 mmHg 90%
    09:00 +13°C° 0 mm 5 m/s 760 mmHg 89%
    10:00 +13°C° 0 mm 6 m/s 760 mmHg 87%
    11:00 +13°C° 0 mm 6 m/s 760 mmHg 84%
    12:00 +14°C° 0 mm 6 m/s 761 mmHg 82%
    13:00 +13°C° 0 mm 6 m/s 761 mmHg 82%
    14:00 +13°C° 0 mm 5 m/s 760 mmHg 82%
    15:00 +13°C° 0 mm 5 m/s 760 mmHg 83%
    16:00 +13°C° 0 mm 5 m/s 760 mmHg 83%
    17:00 +12°C° 0 mm 5 m/s 760 mmHg 84%
    18:00 +12°C° 0 mm 5 m/s 761 mmHg 85%
    19:00 +11°C° 0 mm 6 m/s 761 mmHg 84%
    20:00 +11°C° 0 mm 6 m/s 761 mmHg 84%
    21:00 +11°C° 0 mm 6 m/s 761 mmHg 84%
    22:00 +11°C° 0,1 mm 6 m/s 761 mmHg 84%
    23:00 +11°C° 0,1 mm 7 m/s 761 mmHg 83%

    23 Janvier, Mardi

    Heure Température Précipitation Vent Pression Humidité
    00:00 +10°C° 0,1 mm 7 m/s 761 mmHg 83%
    01:00 +11°C° 0,1 mm 7 m/s 761 mmHg 84%
    02:00 +11°C° 0,1 mm 6 m/s 761 mmHg 85%
    03:00 +11°C° 0,1 mm 6 m/s 761 mmHg 86%
    04:00 +12°C° 0 mm 5 m/s 762 mmHg 87%
    05:00 +10°C° 0 mm 5 m/s 762 mmHg 89%
    06:00 +11°C° 0 mm 4 m/s 762 mmHg 90%
    07:00 +11°C° 0 mm 4 m/s 763 mmHg 90%
    08:00 +11°C° 0 mm 4 m/s 763 mmHg 90%
    09:00 +11°C° 0 mm 4 m/s 764 mmHg 90%
    10:00 +11°C° 0 mm 4 m/s 764 mmHg 86%
    11:00 +12°C° 0 mm 4 m/s 764 mmHg 82%
    12:00 +12°C° 0 mm 5 m/s 765 mmHg 78%
    13:00 +13°C° 0 mm 4 m/s 765 mmHg 78%
    14:00 +13°C° 0 mm 4 m/s 764 mmHg 77%
    15:00 +13°C° 0 mm 4 m/s 764 mmHg 77%
    16:00 +13°C° 0 mm 4 m/s 764 mmHg 79%
    17:00 +12°C° 0 mm 3 m/s 764 mmHg 82%
    18:00 +12°C° 0 mm 3 m/s 764 mmHg 84%
    19:00 +12°C° 0 mm 3 m/s 764 mmHg 86%
    20:00 +11°C° 0 mm 4 m/s 764 mmHg 88%
    21:00 +11°C° 0 mm 4 m/s 764 mmHg 90%
    22:00 +11°C° 0 mm 4 m/s 764 mmHg 91%
    23:00 +11°C° 0 mm 4 m/s 763 mmHg 93%
    Voir plus